一网星座-0253星 (ONEWEB-0253 )

导读

ONEWEB-0253是英国OneWeb星座中的一颗低轨宽带通信卫星,于2021年7月1日发射入轨。OneWeb旨在构建全球覆盖的卫星互联网星座,通过低轨卫星为全球偏远地区、海上和航空场景提供高速宽带接入服务,弥补地面网络覆盖盲区,推动全球互联基础设施建设,ONEWEB-0253是该星座组网进程中的重要组成单元。

基本信息
目录编号:
48971
目录名称:
ONEWEB-0253
国际标识:
2021-060E
轨道中心:
EARTH
卫星名称:
一网星座-0253星
卫星全名:
一网星座-0253星 (ONEWEB-0253 )
卫星状态:
在轨 (已飞行1898 天)
发射日期:
2021-07-01 UTC
国别 :
英国 (GB)
星等 :
--
该卫星已列入 空间交会检测服务 Space Conjunction Data Service (SCDS) ,当前飞行风险评估等级: 无高风险
轨道信息
数据来源 国际轨道数据 AOE轨道数据
星历时间 2026-09-11T03:08:03+0800
23小时前
查看轨道信息
2026-09-10T06:00:00+0800
1天前
查看轨道信息
半长轴 7575.897km 7575.879km
偏心率 0.0001964 0.0002851
轨道倾角 87.914° 87.912°
近地点辐角 80.360° 54.165°
升交点赤经 211.775° 211.946°
平近点角 279.775° 94.599°
近地点 1196.272km 1195.582km
远地点 1199.248km 1199.902km
周期 109.373分钟 109.373分钟
每日圈数 13.165934 13.165983
详细信息
平衡模式:
三轴稳定
覆盖范围:
全球
运营商:
一网卫星公司
运营商所在国:
英国
制造商(研发单位):
一网卫星公司
制造商所在国:
英国
使用方式:
暂无
卫星简介
OneWeb卫星网络由648颗重约125公斤的微型卫星组成,运行在1200公里的轨道上。 每颗卫星都能够提供至少每秒8千兆位的吞吐量,以使用其高吞吐量的Ku频段有效载荷为家庭和移动平台提供互联网接入。该卫星仍在工作。
2D轨道图
3D轨道图
轨道高度分析图
轨道倾角分析图
轨道综合分析图
查看轨道综合分析图
与全量物体交会距离演化趋势
与全量物体交会风险概率演化趋势